Weather History for Cody, WY

Change the Weather History Date:

Wednesday, January 15, 2014

  Actual Average Record
Temperature  
Mean Temperature 44 °F -  
Max Temperature 48 °F 38 °F 61 °F (1938)
Min Temperature 39 °F 14 °F -20 °F (1916)
Degree Days  
Heating Degree Days 22    
Moisture  
Dew Point 17 °F    
Average Humidity 36    
Maximum Humidity 61    
Minimum Humidity 27    
Precipitation  
Precipitation 0.02 in - - ()
Sea Level Pressure  
Sea Level Pressure 30.11 in    
Wind  
Wind Speed 22 mph (West)    
Max Wind Speed 31 mph    
Max Gust Speed 54 mph    
Visibility 9 miles    
Events      
Averages and records for this station are not official NWS values.
T = Trace of Precipitation, MM = Missing Value Source: NWS Daily Summary

Daily Weather History Graph

Daily Weather History Graph

Search for Another Location

Airport:

Trip Planner

Search our weather history database for the weather conditions in past years. The results will help you decide how hot, cold, wet, or windy it might be!

Date:

Astronomy

Jan. 15, 2014 Rise Set
Actual Time 7:49 AM MST 5:02 PM MST
Civil Twilight 7:16 AM MST 5:34 PM MST
Nautical Twilight 6:40 AM MST 6:10 PM MST
Astronomical Twilight 6:05 AM MST 6:45 PM MST
Moon 5:05 PM MST (1/15) 7:05 AM MST (1/15)
Length of Visible Light 10h 18m
Length of Day
9h 13m
Full, 100% of the Moon is Illuminated
Jan 15
Full
Jan 15
Full
Jan 23
Last Quarter
Jan 30
New
Feb 6
First Quarter

Hourly Weather History & Observations

Time (MST) Temp. Windchill Dew Point Humidity Pressure Visibility Wind Dir Wind Speed Gust Speed Precip Events Conditions
12:15 AM 39.2 °F 28.5 °F 26.6 °F 61% 30.17 in 7.0 mi West 24.2 mph 33.4 mph N/A   Clear
12:35 AM 39.2 °F 30.2 °F 23.0 °F 52% 30.16 in 9.0 mi West 17.3 mph 33.4 mph N/A   Clear
12:55 AM 39.2 °F 29.8 °F 21.2 °F 49% 30.16 in 10.0 mi West 18.4 mph 29.9 mph N/A   Clear
1:15 AM 39.2 °F 28.3 °F 21.2 °F 49% 30.15 in 9.0 mi West 25.3 mph 36.8 mph N/A   Clear
1:35 AM 39.2 °F 27.4 °F 21.2 °F 49% 30.15 in 7.0 mi West 29.9 mph 39.1 mph N/A   Clear
1:55 AM 41.0 °F 30.2 °F 21.2 °F 45% 30.14 in 5.0 mi West 27.6 mph 38.0 mph N/A   Clear
2:15 AM 39.2 °F 27.8 °F 21.2 °F 49% 30.13 in 4.0 mi West 27.6 mph 40.3 mph N/A   Clear
2:35 AM 39.2 °F 28.0 °F 21.2 °F 49% 30.11 in 2.0 mi West 26.5 mph 42.6 mph N/A   Clear
2:55 AM 39.2 °F 27.8 °F 21.2 °F 49% 30.11 in 3.0 mi West 27.6 mph 43.7 mph 0.01 in   Clear
3:15 AM 41.0 °F 30.7 °F 21.2 °F 45% 30.11 in 3.0 mi West 25.3 mph 54.1 mph N/A   Clear
3:35 AM 41.0 °F 31.1 °F 21.2 °F 45% 30.14 in 6.0 mi West 23.0 mph 42.6 mph N/A   Clear
3:55 AM 41.0 °F 31.6 °F 19.4 °F 42% 30.15 in 10.0 mi West 20.7 mph 36.8 mph N/A   Clear
4:15 AM 41.0 °F 30.5 °F 19.4 °F 42% 30.15 in 10.0 mi West 26.5 mph 36.8 mph N/A   Clear
4:35 AM 41.0 °F 31.6 °F 19.4 °F 42% 30.13 in 10.0 mi West 20.7 mph 35.7 mph N/A   Clear
4:55 AM 41.0 °F 31.4 °F 19.4 °F 42% 30.12 in 7.0 mi West 21.9 mph 39.1 mph N/A   Partly Cloudy
5:15 AM 41.0 °F 30.9 °F 19.4 °F 42% 30.11 in 10.0 mi West 24.2 mph 36.8 mph N/A   Scattered Clouds
5:35 AM 41.0 °F 30.7 °F 19.4 °F 42% 30.10 in 10.0 mi WSW 25.3 mph 44.9 mph N/A   Mostly Cloudy
5:55 AM 42.8 °F 32.3 °F 19.4 °F 39% 30.09 in 10.0 mi WSW 29.9 mph 42.6 mph N/A   Mostly Cloudy
6:35 AM 42.8 °F 33.5 °F 17.6 °F 36% 30.08 in 10.0 mi WSW 23.0 mph 35.7 mph N/A   Overcast
6:55 AM 42.8 °F 33.5 °F 17.6 °F 36% 30.07 in 10.0 mi WSW 23.0 mph 33.4 mph N/A   Overcast
7:15 AM 41.0 °F 32.5 °F 17.6 °F 39% 30.09 in 10.0 mi WSW 17.3 mph 27.6 mph N/A   Overcast
7:35 AM 41.0 °F 32.2 °F 17.6 °F 39% 30.11 in 10.0 mi WSW 18.4 mph 29.9 mph N/A   Scattered Clouds
7:55 AM 41.0 °F 30.9 °F 17.6 °F 39% 30.12 in 10.0 mi SW 24.2 mph 27.6 mph N/A   Clear
8:15 AM 41.0 °F 30.0 °F 17.6 °F 39% 30.14 in 5.0 mi WSW 28.8 mph 46.0 mph N/A   Clear
8:35 AM 39.2 °F 27.8 °F 19.4 °F 45% 30.11 in 2.0 mi WSW 27.6 mph 44.9 mph N/A   Clear
8:55 AM 41.0 °F 30.9 °F 17.6 °F 39% 30.12 in 7.0 mi WSW 24.2 mph 46.0 mph N/A   Clear
9:15 AM 42.8 °F 33.8 °F 17.6 °F 36% 30.11 in 10.0 mi WSW 21.9 mph 36.8 mph N/A   Clear
9:35 AM 41.0 °F 30.7 °F 17.6 °F 39% 30.14 in 10.0 mi WSW 25.3 mph 42.6 mph 0.01 in   Clear
9:55 AM 41.0 °F 30.0 °F 17.6 °F 39% 30.11 in 10.0 mi SW 28.8 mph 40.3 mph 0.01 in   Clear
10:15 AM 44.6 °F 34.6 °F 19.4 °F 37% 30.02 in 10.0 mi West 31.1 mph 41.4 mph N/A   Clear
10:35 AM 46.4 °F 38.1 °F 17.6 °F 32% 30.03 in 10.0 mi West 24.2 mph 40.3 mph N/A   Clear
10:55 AM 42.8 °F 34.3 °F 17.6 °F 36% 30.05 in 10.0 mi West 19.6 mph 42.6 mph N/A   Clear
11:15 AM 42.8 °F 34.0 °F 17.6 °F 36% 30.05 in 10.0 mi West 20.7 mph 40.3 mph N/A   Clear
11:35 AM 44.6 °F 35.7 °F 17.6 °F 34% 30.06 in 10.0 mi West 24.2 mph 36.8 mph N/A   Clear
11:55 AM 44.6 °F 36.6 °F 17.6 °F 34% 30.07 in 10.0 mi West 19.6 mph 33.4 mph N/A   Clear
12:15 PM 46.4 °F 39.8 °F 17.6 °F 32% 30.08 in 10.0 mi West 16.1 mph 26.5 mph N/A   Clear
12:35 PM 46.4 °F 41.9 °F 17.6 °F 32% 30.08 in 10.0 mi West 9.2 mph 25.3 mph N/A   Clear
12:55 PM 46.4 °F 41.1 °F 17.6 °F 32% 30.07 in 10.0 mi WNW 11.5 mph 26.5 mph N/A   Clear
1:15 PM 48.2 °F - 17.6 °F 30% 30.06 in 10.0 mi West 19.6 mph 29.9 mph N/A   Clear
1:35 PM 46.4 °F 38.5 °F 17.6 °F 32% 30.05 in 10.0 mi West 21.9 mph 33.4 mph N/A   Clear
1:55 PM 46.4 °F 38.5 °F 17.6 °F 32% 30.06 in 10.0 mi WSW 21.9 mph 33.4 mph N/A   Clear
2:15 PM 46.4 °F 38.7 °F 15.8 °F 29% 30.06 in 10.0 mi WSW 20.7 mph 36.8 mph N/A   Clear
2:35 PM 46.4 °F 39.0 °F 17.6 °F 32% 30.06 in 10.0 mi WSW 19.6 mph 34.5 mph N/A   Clear
2:55 PM 46.4 °F 39.2 °F 15.8 °F 29% 30.08 in 10.0 mi WSW 18.4 mph 33.4 mph N/A   Clear
3:15 PM 46.4 °F 38.5 °F 17.6 °F 32% 30.08 in 10.0 mi WSW 21.9 mph 34.5 mph N/A   Clear
3:35 PM 46.4 °F 38.5 °F 15.8 °F 29% 30.07 in 10.0 mi West 21.9 mph 39.1 mph N/A   Clear
3:55 PM 46.4 °F 38.1 °F 15.8 °F 29% 30.06 in 10.0 mi WSW 24.2 mph 34.5 mph N/A   Clear
4:15 PM 46.4 °F 39.5 °F 15.8 °F 29% 30.09 in 10.0 mi West 17.3 mph 36.8 mph N/A   Clear
4:35 PM 46.4 °F 40.4 °F 15.8 °F 29% 30.09 in 10.0 mi West 13.8 mph 32.2 mph N/A   Clear
4:55 PM 44.6 °F 40.7 °F 15.8 °F 31% 30.11 in 10.0 mi West 6.9 mph - N/A   Clear
5:15 PM 42.8 °F 40.1 °F 15.8 °F 34% 30.10 in 10.0 mi North 4.6 mph - N/A   Clear
5:35 PM 46.4 °F 40.1 °F 14.0 °F 27% 30.10 in 10.0 mi West 15.0 mph 24.2 mph N/A   Clear
5:55 PM 46.4 °F 39.0 °F 14.0 °F 27% 30.11 in 10.0 mi WNW 19.6 mph 31.1 mph N/A   Clear
6:15 PM 44.6 °F 37.4 °F 14.0 °F 29% 30.11 in 10.0 mi WNW 16.1 mph 29.9 mph N/A   Clear
6:35 PM 44.6 °F 37.4 °F 14.0 °F 29% 30.10 in 10.0 mi WNW 16.1 mph 26.5 mph N/A   Clear
6:55 PM 44.6 °F 36.1 °F 14.0 °F 29% 30.10 in 10.0 mi WNW 21.9 mph 34.5 mph N/A   Clear
7:15 PM 44.6 °F 37.2 °F 14.0 °F 29% 30.10 in 10.0 mi NW 17.3 mph 27.6 mph N/A   Clear
7:55 PM 42.8 °F 35.4 °F 15.8 °F 34% 30.11 in 10.0 mi NW 15.0 mph 21.9 mph N/A   Clear
8:15 PM 44.6 °F 36.1 °F 15.8 °F 31% 30.11 in 10.0 mi NW 21.9 mph 32.2 mph N/A   Clear
8:35 PM 44.6 °F 36.4 °F 14.0 °F 29% 30.12 in 10.0 mi NW 20.7 mph 28.8 mph N/A   Clear
8:55 PM 44.6 °F 36.6 °F 14.0 °F 29% 30.13 in 10.0 mi WNW 19.6 mph 31.1 mph N/A   Clear
9:15 PM 44.6 °F 36.9 °F 14.0 °F 29% 30.13 in 10.0 mi NW 18.4 mph 31.1 mph N/A   Clear
9:35 PM 44.6 °F 36.1 °F 14.0 °F 29% 30.13 in 10.0 mi NW 21.9 mph 31.1 mph N/A   Clear
9:55 PM 42.8 °F 34.5 °F 14.0 °F 31% 30.14 in 10.0 mi NW 18.4 mph 28.8 mph N/A   Clear
10:15 PM 42.8 °F 34.3 °F 14.0 °F 31% 30.15 in 10.0 mi WNW 19.6 mph 29.9 mph N/A   Clear
10:35 PM 44.6 °F 37.4 °F 14.0 °F 29% 30.15 in 10.0 mi WNW 16.1 mph 31.1 mph N/A   Clear
10:55 PM 42.8 °F 34.3 °F 14.0 °F 31% 30.17 in 10.0 mi NW 19.6 mph 29.9 mph N/A   Clear
11:15 PM 42.8 °F 34.3 °F 14.0 °F 31% 30.18 in 10.0 mi NW 19.6 mph 27.6 mph N/A   Clear
11:35 PM 42.8 °F 35.8 °F 14.0 °F 31% 30.18 in 10.0 mi WNW 13.8 mph 25.3 mph N/A   Clear
11:55 PM 41.0 °F 33.1 °F 15.8 °F 36% 30.19 in 10.0 mi WNW 15.0 mph 24.2 mph N/A   Clear